Tracking 19909 objects as of 21-Oct-2019
HD Live streaming from Space Station
objects crossing your sky now

COSMOS 1275 DEB

Track COSMOS 1275 DEB now!
10-day predictions


NORAD ID: 13817
Int'l Code: 1981-053HQ
Perigee: 881.5 km
Apogee: 918.5 km
Inclination: 82.9 °
Period: 102.8 minutes
Semi major axis: 7271 km
RCS: 0.0127 m2 (small)
Launch date: June 4, 1981
Source: Commonwealth of Independent States (former USSR) (CIS)
Launch site: PLESETSK MISSILE AND SPACE COMPLEX (PKMTR)

Note: This is SATELLITE DEBRIS
aabbcc
Your satellite tracking list
Your tracking list is empty




NASA's NSSDC Master Catalog

Two Line Element Set (TLE):
1 13817U 81053HM  19292.21035154  .00000390  00000-0  25283-3 0  9996
2 13817  82.9483   5.4086 0025475 280.1638  79.6659 14.00265808915236
Source of the keplerian elements: AFSPC